[[{"header":{"parameterUnit":"m.s-1","parameterCategory":1,"la1":30.2991,"la2":30.254,"lo1":-89.0895,"lo2":-89.0444,"dy":0.0017,"dx":0.0017,"nx":28,"ny":28,"refTime":"2025-09-06T21:00:00:Z","depth":0,"parameterNumber":2,"parameterNumberName":"U-component_of_WINDS"},"data":[0,0,0,0,0,0,0,0,0,0,0,0,0,0,0,0,0,0,0,0,0,0,0,0,0,0,0,0,0,0,0,0,0,0,0,0,0,0,0,0,0,0,0,0,0,0,0,0,0,0,0,0,0,0,0,0,0,0,-0.8164,-0.8164,0,-0.8128,-0.8127,-0.8127,-0.8074,-0.8074,-0.8073,-0.8072,-0.8035,-0.8035,-0.8035,0,0,0,0,0,0,0,0,0,0,0,0,0,-0.8189,-0.8189,-0.8164,-0.8164,-0.8163,-0.8128,-0.8127,-0.8127,-0.8075,-0.8074,-0.8072,-0.8071,-0.8035,-0.8035,-0.8035,0,0,0,0,0,0,0,0,0,0,0,0,0,-0.8168,-0.8189,-0.8164,-0.8133,-0.813,-0.8128,-0.8127,-0.8127,-0.8075,-0.8074,-0.8072,-0.8071,-0.8035,-0.8035,-0.8035,-0.8061,0,0,-0.8034,-0.8034,0,0,0,0,0,0,0,0,-0.8169,-0.8167,-0.8138,-0.8135,-0.8132,-0.8104,-0.8122,-0.8105,-0.8075,-0.8096,-0.8072,-0.807,-0.8059,-0.8057,-0.8053,-0.8059,-0.8058,-0.8034,-0.8034,-0.8034,-0.8034,0,0,0,0,0,0,0,-0.8171,-0.8168,-0.815,-0.8138,-0.8134,-0.8121,-0.8116,-0.8119,-0.8086,-0.8094,-0.809,-0.8086,-0.8057,-0.8054,-0.8052,-0.8057,-0.8034,-0.8034,-0.8034,-0.8034,-0.8081,-0.8083,0,0,0,0,0,0,-0.8177,-0.817,-0.8151,-0.8149,-0.8147,-0.8121,-0.8116,-0.8114,-0.8086,-0.808,-0.8088,-0.8084,-0.8055,-0.8052,-0.8051,-0.8078,-0.8034,-0.8034,-0.8034,-0.808,-0.8082,-0.8083,0,0,0,0,0,0,-0.8177,-0.8176,-0.8153,-0.8158,-0.8154,-0.8122,-0.8121,-0.8114,-0.8111,-0.8081,-0.8075,-0.809,-0.8053,-0.8051,-0.8058,-0.8076,-0.8034,-0.8034,-0.8079,-0.8081,-0.8083,-0.8135,0,0,0,0,0,0,-0.8178,-0.8176,-0.8186,-0.8159,-0.8154,-0.8161,-0.8122,-0.8115,-0.811,-0.8105,-0.8081,-0.8076,-0.8052,-0.8059,-0.8058,-0.8075,-0.8034,-0.8077,-0.8079,-0.8082,-0.8131,-0.8138,-0.8145,0,0,0,0,0,-0.8179,-0.8202,-0.8187,-0.8185,-0.8166,-0.8163,-0.816,-0.8132,-0.8112,-0.8121,-0.8102,-0.8077,-0.8075,-0.806,-0.8059,-0.8076,-0.8076,-0.8079,-0.8082,-0.8128,-0.8137,-0.8144,0,0,0,0,0,0,-0.8233,-0.8198,-0.818,-0.8195,-0.8182,-0.8154,-0.8165,-0.8142,-0.8134,-0.813,-0.8096,-0.8091,-0.8103,-0.809,-0.8075,-0.8099,-0.8071,-0.8074,-0.8107,-0.8115,-0.8121,-0.8124,-0.8033,0,0,0,0,0,-0.8246,-0.8247,-0.8216,-0.8233,-0.8227,-0.8197,-0.8195,-0.8174,-0.8159,-0.8153,-0.8134,-0.8121,-0.8117,-0.8115,-0.811,-0.8129,-0.8123,-0.814,-0.8147,-0.8152,-0.8155,-0.8163,-0.8171,-0.8093,-0.8093,-0.8093,0,0,-0.8274,-0.8256,-0.8258,-0.8243,-0.823,-0.8231,-0.8193,-0.8196,-0.8196,-0.8154,-0.816,-0.8145,-0.8128,-0.8141,-0.8146,-0.8131,-0.8175,-0.8156,-0.8161,-0.8161,-0.8167,-0.8175,-0.8181,-0.8096,-0.8095,-0.8095,0,0,-0.8326,-0.8312,-0.8323,-0.8311,-0.8292,-0.8272,-0.8275,-0.8249,-0.8238,-0.8243,-0.8211,-0.8211,-0.8205,-0.8194,-0.8187,-0.8233,-0.8209,-0.8233,-0.8267,-0.8275,-0.8281,-0.8286,-0.8302,-0.8308,-0.8236,-0.8236,-0.8236,0,-0.8363,-0.8363,-0.8332,-0.8336,-0.833,-0.8292,-0.8303,-0.8293,-0.8273,-0.827,-0.8254,-0.8245,-0.823,-0.824,-0.8251,-0.8247,-0.8249,-0.8235,-0.8283,-0.8288,-0.8292,-0.8307,-0.8313,-0.8239,-0.8238,-0.8238,-0.8238,0,-0.8409,-0.841,-0.8421,-0.8403,-0.8398,-0.8406,-0.8376,-0.8375,-0.8354,-0.8336,-0.8341,-0.8322,-0.8312,-0.8313,-0.8294,-0.8319,-0.8311,-0.8289,-0.826,-0.8303,-0.8316,-0.8321,-0.8243,-0.8242,-0.8241,-0.824,0,0,-0.8494,-0.8458,-0.8462,-0.8453,-0.8429,-0.8428,-0.8434,-0.8424,-0.8423,-0.8411,-0.8414,-0.841,-0.8389,-0.8382,-0.8361,-0.8368,-0.8404,-0.8345,-0.8344,-0.8356,-0.8431,-0.8447,-0.8454,-0.8388,-0.8389,-0.839,-0.8432,0,-0.854,-0.8548,-0.852,-0.8535,-0.8534,-0.8497,-0.8502,-0.8487,-0.847,-0.8467,-0.8448,-0.8445,-0.8418,-0.8413,-0.8419,-0.8399,-0.8419,-0.8395,-0.8391,-0.8391,-0.8396,-0.8461,-0.8478,-0.8519,-0.8437,-0.8438,-0.8438,0,-0.8596,-0.8585,-0.86,-0.8574,-0.8573,-0.8578,-0.8565,-0.8563,-0.8545,-0.8532,-0.8523,-0.8498,-0.8502,-0.8474,-0.8477,-0.8462,-0.8458,-0.8448,-0.8449,-0.8447,-0.8417,-0.846,-0.8531,-0.8537,-0.8446,-0.8445,-0.8445,0,-0.8655,-0.8645,-0.8652,-0.8646,-0.8616,-0.862,-0.8607,-0.8589,-0.8584,-0.8573,-0.8569,-0.8559,-0.8554,-0.8546,-0.8519,-0.8501,-0.8525,-0.8496,-0.8514,-0.8515,-0.8521,-0.8521,-0.8592,-0.8519,-0.8519,-0.8519,-0.8519,0,-0.871,-0.872,-0.8678,-0.8683,-0.8693,-0.866,-0.8671,-0.8655,-0.8639,-0.8639,-0.8606,-0.8607,-0.8571,-0.8568,-0.8547,-0.8552,-0.855,-0.8539,-0.8534,-0.8542,-0.8543,-0.8539,-0.8535,-0.8521,-0.852,-0.852,-0.852,0,-0.8778,-0.8751,-0.8756,-0.8727,-0.872,-0.8728,-0.8703,-0.8706,-0.8686,-0.8687,-0.8685,-0.8654,-0.8648,-0.862,-0.8608,-0.8594,-0.8607,-0.8596,-0.8613,-0.8609,-0.8629,-0.8627,-0.8699,-0.8706,-0.863,-0.8631,-0.8631,0,-0.8814,-0.8821,-0.8793,-0.879,-0.8779,-0.8776,-0.8771,-0.8739,-0.8735,-0.8714,-0.8719,-0.8711,-0.8703,-0.8695,-0.8672,-0.8662,-0.865,-0.8676,-0.8648,-0.8656,-0.8649,-0.8649,-0.8649,-0.8682,-0.8683,-0.8683,-0.8684,0,-0.8882,-0.8868,-0.8861,-0.885,-0.8844,-0.8834,-0.8821,-0.8821,-0.8786,-0.8782,-0.8776,-0.877,-0.8757,-0.8749,-0.8735,-0.8722,-0.8697,-0.8693,-0.8696,-0.8705,-0.8714,-0.8709,-0.8628,-0.8691,-0.8691,-0.869,-0.869,-0.8689,-0.8935,-0.8939,-0.8919,-0.8912,-0.89,-0.8888,-0.8889,-0.8869,-0.8863,-0.885,-0.8831,-0.8827,-0.8808,-0.8787,-0.8776,-0.8772,-0.8758,-0.8763,-0.8765,-0.8766,-0.877,-0.8715,-0.8769,-0.8769,-0.8769,-0.8769,-0.8768,0,-0.9,-0.8985,-0.8979,-0.8963,-0.8957,-0.8934,-0.8919,-0.8916,-0.8913,-0.8897,-0.8889,-0.8881,-0.8873,-0.8848,-0.8837,-0.8839,-0.8827,-0.8837,-0.8836,-0.8833,-0.8784,-0.8782,-0.8847,-0.8847,-0.8847,-0.8847,-0.8847,-0.8847,-0.9033,-0.9038,-0.9022,-0.902,-0.9005,-0.9,-0.8993,-0.8983,-0.897,-0.8963,-0.8955,-0.8939,-0.892,-0.8907,-0.8898,-0.889,-0.8888,-0.8901,-0.889,-0.8845,-0.8837,-0.883,-0.8828,-0.8901,-0.8901,-0.894,-0.894,-0.8941]},{"header":{"parameterUnit":"m.s-1","parameterCategory":1,"la1":30.2991,"la2":30.254,"lo1":-89.0895,"lo2":-89.0444,"dy":0.0017,"dx":0.0017,"nx":28,"ny":28,"refTime":"2025-09-06T21:00:00:Z","depth":0,"parameterNumber":3,"parameterNumberName":"V-component_of_WINDS"},"data":[0,0,0,0,0,0,0,0,0,0,0,0,0,0,0,0,0,0,0,0,0,0,0,0,0,0,0,0,0,0,0,0,0,0,0,0,0,0,0,0,0,0,0,0,0,0,0,0,0,0,0,0,0,0,0,0,0,0,-4.8558,-4.8559,0,-4.8615,-4.8615,-4.8616,-4.8587,-4.8585,-4.8584,-4.8582,-4.8633,-4.8636,-4.8639,0,0,0,0,0,0,0,0,0,0,0,0,0,-4.8419,-4.8421,-4.8558,-4.8559,-4.8559,-4.8615,-4.8615,-4.8616,-4.8587,-4.8585,-4.8583,-4.8582,-4.8633,-4.8636,-4.8639,0,0,0,0,0,0,0,0,0,0,0,0,0,-4.8478,-4.8422,-4.8558,-4.8552,-4.8552,-4.8614,-4.8615,-4.8616,-4.8587,-4.8585,-4.8583,-4.8581,-4.8632,-4.8636,-4.864,-4.8709,0,0,-4.8652,-4.8654,0,0,0,0,0,0,0,0,-4.8474,-4.8483,-4.8552,-4.8552,-4.8552,-4.8592,-4.8585,-4.8647,-4.8588,-4.8574,-4.8582,-4.858,-4.8621,-4.8626,-4.8641,-4.8712,-4.8714,-4.8652,-4.8655,-4.8657,-4.8658,0,0,0,0,0,0,0,-4.847,-4.848,-4.858,-4.8553,-4.8553,-4.8544,-4.855,-4.8597,-4.8609,-4.8575,-4.8573,-4.858,-4.862,-4.8637,-4.8642,-4.8715,-4.8652,-4.8656,-4.8659,-4.866,-4.8846,-4.8848,0,0,0,0,0,0,-4.8467,-4.8477,-4.8578,-4.8582,-4.8507,-4.8549,-4.8555,-4.8581,-4.8608,-4.861,-4.8582,-4.8579,-4.8631,-4.8637,-4.8644,-4.8727,-4.8657,-4.8661,-4.8663,-4.8843,-4.8846,-4.8849,0,0,0,0,0,0,-4.8464,-4.8477,-4.8576,-4.8529,-4.8541,-4.8553,-4.8583,-4.8583,-4.86,-4.8614,-4.8615,-4.8597,-4.863,-4.8638,-4.8694,-4.8728,-4.8662,-4.8666,-4.884,-4.8844,-4.8848,-4.8894,0,0,0,0,0,0,-4.8461,-4.8476,-4.8504,-4.853,-4.8544,-4.8627,-4.8585,-4.8586,-4.8608,-4.8604,-4.8628,-4.863,-4.8629,-4.8688,-4.8698,-4.8733,-4.8669,-4.8837,-4.8842,-4.8847,-4.889,-4.8899,-4.8907,0,0,0,0,0,-4.8456,-4.8513,-4.8505,-4.8518,-4.8579,-4.8629,-4.8637,-4.8635,-4.8611,-4.8638,-4.8647,-4.8629,-4.8724,-4.8694,-4.8705,-4.8741,-4.8835,-4.8841,-4.8846,-4.8886,-4.8897,-4.8907,0,0,0,0,0,0,-4.8487,-4.8516,-4.8508,-4.8576,-4.8601,-4.8624,-4.8658,-4.8648,-4.8678,-4.8673,-4.8668,-4.8674,-4.8732,-4.8743,-4.8709,-4.8811,-4.8775,-4.8783,-4.8801,-4.8812,-4.8821,-4.8816,-4.8673,0,0,0,0,0,-4.8502,-4.8543,-4.8565,-4.8622,-4.8636,-4.8645,-4.8667,-4.8664,-4.8689,-4.8698,-4.8712,-4.8734,-4.8769,-4.8792,-4.8824,-4.8892,-4.8896,-4.8923,-4.8931,-4.8938,-4.8945,-4.8981,-4.8993,-4.8867,-4.8867,-4.8867,0,0,-4.8533,-4.8554,-4.8579,-4.8629,-4.8648,-4.8688,-4.8654,-4.8697,-4.8727,-4.8704,-4.8758,-4.8769,-4.8794,-4.8856,-4.8884,-4.8867,-4.8981,-4.8946,-4.8951,-4.8953,-4.8988,-4.9,-4.901,-4.8871,-4.887,-4.887,0,0,-4.8609,-4.863,-4.868,-4.8701,-4.8732,-4.8738,-4.875,-4.8777,-4.8783,-4.8839,-4.8823,-4.8857,-4.8917,-4.8935,-4.8952,-4.9039,-4.9023,-4.905,-4.9095,-4.913,-4.914,-4.9149,-4.9178,-4.9189,-4.9057,-4.9057,-4.9057,0,-4.8643,-4.8705,-4.8707,-4.8753,-4.8775,-4.876,-4.881,-4.8829,-4.8868,-4.8882,-4.8863,-4.8939,-4.8955,-4.9021,-4.9043,-4.9058,-4.907,-4.9046,-4.9139,-4.9148,-4.9156,-4.9184,-4.9195,-4.906,-4.9059,-4.9059,-4.9059,0,-4.8744,-4.8788,-4.8824,-4.8865,-4.8892,-4.8939,-4.8947,-4.8973,-4.8969,-4.8977,-4.9033,-4.9052,-4.9089,-4.9105,-4.91,-4.9171,-4.9159,-4.914,-4.9103,-4.917,-4.9197,-4.9208,-4.9064,-4.9063,-4.9062,-4.9061,0,0,-4.8838,-4.8883,-4.8896,-4.8914,-4.8948,-4.8981,-4.9028,-4.9066,-4.9088,-4.9116,-4.9154,-4.9207,-4.919,-4.9209,-4.9207,-4.9239,-4.9305,-4.9215,-4.9216,-4.923,-4.9383,-4.9396,-4.9408,-4.9296,-4.9298,-4.93,-4.938,0,-4.8916,-4.9,-4.9005,-4.9081,-4.912,-4.9108,-4.9149,-4.9173,-4.9183,-4.9216,-4.9225,-4.9263,-4.9238,-4.925,-4.9281,-4.929,-4.9335,-4.9285,-4.9329,-4.9331,-4.9321,-4.9422,-4.9436,-4.9511,-4.9391,-4.9393,-4.9394,0,-4.9017,-4.9051,-4.9132,-4.9162,-4.9178,-4.9215,-4.9251,-4.9284,-4.9312,-4.9316,-4.934,-4.9334,-4.938,-4.9345,-4.9408,-4.9374,-4.9392,-4.94,-4.9403,-4.9405,-4.9365,-4.9425,-4.9534,-4.9545,-4.941,-4.9409,-4.9408,0,-4.9076,-4.9142,-4.9199,-4.9216,-4.9252,-4.9278,-4.9294,-4.932,-4.9343,-4.9374,-4.9389,-4.9425,-4.9443,-4.947,-4.9473,-4.9447,-4.9536,-4.9501,-4.9539,-4.9539,-4.9556,-4.9554,-4.9668,-4.9572,-4.9572,-4.9571,-4.9571,0,-4.9161,-4.921,-4.9226,-4.9261,-4.9316,-4.9321,-4.9374,-4.9388,-4.9411,-4.9447,-4.9439,-4.9472,-4.9475,-4.9509,-4.9512,-4.9563,-4.9572,-4.9575,-4.9575,-4.9575,-4.9574,-4.9585,-4.9579,-4.9574,-4.9574,-4.9573,-4.9573,0,-4.9234,-4.9248,-4.9309,-4.934,-4.9349,-4.9388,-4.9413,-4.9446,-4.9456,-4.9501,-4.9512,-4.9527,-4.9567,-4.9574,-4.9619,-4.9621,-4.9682,-4.9677,-4.9673,-4.9672,-4.9709,-4.9705,-4.9831,-4.9848,-4.9743,-4.9744,-4.9745,0,-4.9286,-4.9324,-4.9361,-4.9386,-4.9404,-4.9444,-4.9469,-4.9476,-4.9501,-4.9537,-4.9565,-4.9605,-4.9636,-4.97,-4.9713,-4.9749,-4.9743,-4.9786,-4.9748,-4.9747,-4.9742,-4.9739,-4.9742,-4.9792,-4.9793,-4.9794,-4.9794,0,-4.9377,-4.9382,-4.942,-4.946,-4.9491,-4.9522,-4.9552,-4.9572,-4.9583,-4.9612,-4.9654,-4.9679,-4.9728,-4.9767,-4.9803,-4.9817,-4.9807,-4.9807,-4.9817,-4.9816,-4.9812,-4.9813,-4.9691,-4.9803,-4.9802,-4.9801,-4.9801,-4.9801,-4.9439,-4.9473,-4.9505,-4.9547,-4.9571,-4.96,-4.9633,-4.9648,-4.9685,-4.9727,-4.9728,-4.9774,-4.9801,-4.9848,-4.9865,-4.99,-4.9886,-4.9901,-4.9905,-4.9908,-4.9911,-4.9809,-4.9907,-4.9906,-4.9906,-4.9906,-4.9906,0,-4.9528,-4.9549,-4.9588,-4.9632,-4.9665,-4.9657,-4.969,-4.9718,-4.9759,-4.9787,-4.982,-4.9868,-4.9907,-4.9925,-4.9962,-4.9986,-4.9983,-4.9996,-4.9992,-4.9996,-4.9922,-4.9909,-4.9998,-4.9998,-4.9998,-4.9998,-4.9998,-4.9998,-4.9578,-4.9635,-4.9644,-4.9713,-4.9733,-4.978,-4.9799,-4.9825,-4.9848,-4.9903,-4.9936,-4.9949,-4.9973,-5.0012,-5.0047,-5.0051,-5.0064,-5.0079,-5.0081,-5.001,-5.0001,-4.9992,-4.9979,-5.0082,-5.0082,-5.0151,-5.0152,-5.0152]}]]